When you browse on this site, cookies collect data to enhance your experience and personalize the content and advertising you see.
Visit our Privacy Policy to learn more. By continuing to use the site, you agree to this use of cookies and data.
  • In Austria
  • List of Countries
  • For 7 days
  • Water Temperature
  • Weather Map
  • News
  • Weather Widgets
  • user-avatar
    Login

    Hourly Weather Asadabad

    Today, 28 May, Thursday

    Time Temperature Precipitation Wind Pressure Humidity
    00:00 +25°C° 0 mm 3 mps 656 mmHg 32%
    01:00 +24°C° 0 mm 3 mps 655 mmHg 32%
    02:00 +24°C° 0 mm 3 mps 655 mmHg 33%
    03:00 +22°C° 0 mm 3 mps 655 mmHg 33%
    04:00 +22°C° 0 mm 3 mps 655 mmHg 33%
    05:00 +22°C° 0 mm 3 mps 655 mmHg 33%
    06:00 +25°C° 0 mm 2 mps 655 mmHg 31%
    07:00 +26°C° 0 mm 2 mps 656 mmHg 28%
    08:00 +28°C° 0 mm 1 mps 656 mmHg 25%
    09:00 +30°C° 0 mm 2 mps 657 mmHg 23%
    10:00 +31°C° 0 mm 2 mps 657 mmHg 22%
    11:00 +32°C° 0 mm 2 mps 657 mmHg 20%
    12:00 +34°C° 0 mm 2 mps 657 mmHg 19%
    13:00 +34°C° 0 mm 2 mps 657 mmHg 19%
    14:00 +35°C° 0 mm 2 mps 656 mmHg 19%
    15:00 +34°C° 0 mm 3 mps 656 mmHg 21%
    16:00 +33°C° 0 mm 3 mps 656 mmHg 23%
    17:00 +33°C° 0 mm 4 mps 655 mmHg 25%
    18:00 +30°C° 0 mm 3 mps 655 mmHg 30%
    19:00 +28°C° 0 mm 3 mps 655 mmHg 34%
    20:00 +27°C° 0 mm 2 mps 655 mmHg 38%
    21:00 +26°C° 0 mm 2 mps 655 mmHg 37%
    22:00 +26°C° 0 mm 2 mps 655 mmHg 36%
    23:00 +25°C° 0 mm 3 mps 655 mmHg 35%

    Tomorrow, 29 May, Friday

    Time Temperature Precipitation Wind Pressure Humidity
    00:00 +25°C° 0 mm 2 mps 655 mmHg 36%
    01:00 +24°C° 0 mm 2 mps 654 mmHg 37%
    02:00 +24°C° 0 mm 2 mps 654 mmHg 38%
    03:00 +23°C° 0 mm 2 mps 654 mmHg 39%
    04:00 +23°C° 0 mm 2 mps 654 mmHg 40%
    05:00 +21°C° 0 mm 2 mps 654 mmHg 41%
    06:00 +24°C° 0.1 mm 1 mps 654 mmHg 37%
    07:00 +26°C° 0.1 mm 1 mps 655 mmHg 33%
    08:00 +28°C° 0.1 mm 1 mps 656 mmHg 29%
    09:00 +29°C° 0.2 mm 1 mps 656 mmHg 29%
    10:00 +30°C° 0.2 mm 2 mps 657 mmHg 28%
    11:00 +31°C° 0.2 mm 2 mps 657 mmHg 28%
    12:00 +31°C° 0.2 mm 2 mps 656 mmHg 29%
    13:00 +31°C° 0.2 mm 3 mps 656 mmHg 31%
    14:00 +31°C° 0.2 mm 3 mps 656 mmHg 32%
    15:00 +30°C° 0.6 mm 3 mps 656 mmHg 35%
    16:00 +28°C° 0.6 mm 3 mps 656 mmHg 38%
    17:00 +27°C° 0.6 mm 3 mps 655 mmHg 41%
    18:00 +26°C° 0 mm 3 mps 655 mmHg 45%
    19:00 +25°C° 0 mm 2 mps 656 mmHg 49%
    20:00 +24°C° 0 mm 2 mps 656 mmHg 52%
    21:00 +24°C° 0.1 mm 2 mps 656 mmHg 52%
    22:00 +22°C° 0.1 mm 3 mps 656 mmHg 52%
    23:00 +22°C° 0.1 mm 3 mps 655 mmHg 51%

    Day after tomorrow, 30 May, Saturday

    Time Temperature Precipitation Wind Pressure Humidity
    00:00 +23°C° 0.1 mm 2 mps 655 mmHg 51%
    01:00 +21°C° 0.1 mm 2 mps 655 mmHg 51%
    02:00 +21°C° 0.1 mm 2 mps 655 mmHg 51%
    03:00 +21°C° 0.3 mm 2 mps 655 mmHg 52%
    04:00 +21°C° 0.3 mm 2 mps 655 mmHg 53%
    05:00 +21°C° 0.3 mm 1 mps 655 mmHg 54%
    06:00 +23°C° 0.1 mm 1 mps 656 mmHg 49%
    07:00 +24°C° 0.1 mm 1 mps 656 mmHg 44%
    08:00 +26°C° 0.1 mm 1 mps 657 mmHg 38%
    09:00 +27°C° 0.1 mm 2 mps 658 mmHg 37%
    10:00 +28°C° 0.1 mm 2 mps 658 mmHg 36%
    11:00 +29°C° 0.1 mm 3 mps 658 mmHg 35%
    12:00 +29°C° 0.3 mm 3 mps 658 mmHg 37%
    13:00 +29°C° 0.3 mm 4 mps 658 mmHg 39%
    14:00 +29°C° 0.3 mm 4 mps 658 mmHg 41%
    15:00 +27°C° 2.1 mm 4 mps 657 mmHg 50%
    16:00 +25°C° 2.1 mm 3 mps 656 mmHg 59%
    17:00 +22°C° 2.1 mm 3 mps 655 mmHg 69%
    18:00 +23°C° 0.4 mm 2 mps 656 mmHg 69%
    19:00 +23°C° 0.4 mm 2 mps 656 mmHg 70%
    20:00 +23°C° 0.4 mm 2 mps 656 mmHg 71%
    21:00 +23°C° 0 mm 2 mps 656 mmHg 70%
    22:00 +21°C° 0 mm 2 mps 656 mmHg 69%
    23:00 +22°C° 0 mm 1 mps 657 mmHg 69%

    31 May, Sunday

    Time Temperature Precipitation Wind Pressure Humidity
    00:00 +22°C° 0 mm 1 mps 656 mmHg 67%
    01:00 +22°C° 0 mm 1 mps 656 mmHg 66%
    02:00 +21°C° 0 mm 1 mps 656 mmHg 64%
    03:00 +21°C° 0 mm 1 mps 656 mmHg 64%
    04:00 +21°C° 0 mm 1 mps 656 mmHg 64%
    05:00 +21°C° 0 mm 1 mps 656 mmHg 63%
    06:00 +20°C° 0 mm 0 mps 656 mmHg 57%
    07:00 +22°C° 0 mm 0 mps 657 mmHg 51%
    08:00 +24°C° 0 mm 0 mps 658 mmHg 44%
    09:00 +27°C° 0.1 mm 1 mps 658 mmHg 43%
    10:00 +28°C° 0.1 mm 1 mps 658 mmHg 42%
    11:00 +29°C° 0.1 mm 2 mps 658 mmHg 40%
    12:00 +29°C° 0.2 mm 2 mps 658 mmHg 39%
    13:00 +30°C° 0.2 mm 3 mps 658 mmHg 38%
    14:00 +30°C° 0.2 mm 3 mps 657 mmHg 37%
    15:00 +30°C° 0.4 mm 3 mps 657 mmHg 39%
    16:00 +30°C° 0.4 mm 3 mps 657 mmHg 41%
    17:00 +29°C° 0.4 mm 3 mps 656 mmHg 43%
    18:00 +27°C° 1.1 mm 3 mps 656 mmHg 52%
    19:00 +25°C° 1.1 mm 2 mps 656 mmHg 62%
    20:00 +24°C° 1.1 mm 2 mps 656 mmHg 71%
    21:00 +23°C° 0.1 mm 2 mps 656 mmHg 73%
    22:00 +23°C° 0.1 mm 1 mps 656 mmHg 76%
    23:00 +22°C° 0.1 mm 1 mps 657 mmHg 78%

    1 June, Monday

    Time Temperature Precipitation Wind Pressure Humidity
    00:00 +22°C° 0.2 mm 1 mps 657 mmHg 79%
    01:00 +20°C° 0.2 mm 0 mps 657 mmHg 79%
    02:00 +19°C° 0.2 mm 0 mps 656 mmHg 80%
    03:00 +19°C° 0 mm 0 mps 656 mmHg 80%
    04:00 +19°C° 0 mm 0 mps 656 mmHg 80%
    05:00 +18°C° 0 mm 0 mps 656 mmHg 80%
    06:00 +19°C° 0 mm 0 mps 657 mmHg 75%
    07:00 +22°C° 0 mm 1 mps 657 mmHg 70%
    08:00 +24°C° 0 mm 1 mps 657 mmHg 65%
    09:00 +25°C° 0 mm 1 mps 657 mmHg 62%
    10:00 +26°C° 0 mm 2 mps 657 mmHg 58%
    11:00 +27°C° 0 mm 2 mps 658 mmHg 55%
    12:00 +27°C° 0.1 mm 2 mps 657 mmHg 53%
    13:00 +28°C° 0.1 mm 3 mps 657 mmHg 51%
    14:00 +29°C° 0.1 mm 3 mps 657 mmHg 49%
    15:00 +29°C° 0.2 mm 2 mps 657 mmHg 48%
    16:00 +29°C° 0.2 mm 2 mps 657 mmHg 47%
    17:00 +29°C° 0.2 mm 2 mps 656 mmHg 46%
    18:00 +28°C° 0.4 mm 2 mps 656 mmHg 51%
    19:00 +27°C° 0.4 mm 1 mps 656 mmHg 56%
    20:00 +26°C° 0.4 mm 1 mps 656 mmHg 61%
    21:00 +25°C° 0.3 mm 1 mps 657 mmHg 63%
    22:00 +24°C° 0.3 mm 1 mps 657 mmHg 65%
    23:00 +24°C° 0.3 mm 1 mps 657 mmHg 67%

    2 June, Tuesday

    Time Temperature Precipitation Wind Pressure Humidity
    00:00 +23°C° 0 mm 1 mps 657 mmHg 66%
    01:00 +23°C° 0 mm 1 mps 656 mmHg 65%
    02:00 +23°C° 0 mm 1 mps 656 mmHg 63%
    03:00 +22°C° 0 mm 1 mps 656 mmHg 61%
    04:00 +22°C° 0 mm 1 mps 656 mmHg 59%
    05:00 +22°C° 0 mm 1 mps 656 mmHg 57%
    06:00 +23°C° 0 mm 1 mps 656 mmHg 51%
    07:00 +25°C° 0 mm 1 mps 657 mmHg 46%
    08:00 +24°C° 0 mm 0 mps 657 mmHg 41%
    09:00 +27°C° 0 mm 1 mps 657 mmHg 39%
    10:00 +28°C° 0 mm 1 mps 658 mmHg 38%
    11:00 +30°C° 0 mm 2 mps 658 mmHg 37%
    12:00 +30°C° 0 mm 2 mps 658 mmHg 34%
    13:00 +31°C° 0 mm 2 mps 657 mmHg 32%
    14:00 +32°C° 0 mm 2 mps 657 mmHg 29%
    15:00 +32°C° 0 mm 2 mps 657 mmHg 29%
    16:00 +33°C° 0 mm 3 mps 657 mmHg 29%
    17:00 +33°C° 0 mm 3 mps 657 mmHg 28%
    18:00 +31°C° 0.1 mm 2 mps 656 mmHg 34%
    19:00 +29°C° 0.1 mm 1 mps 656 mmHg 40%
    20:00 +27°C° 0.1 mm 1 mps 655 mmHg 46%
    21:00 +26°C° 0 mm 1 mps 655 mmHg 49%
    22:00 +26°C° 0 mm 1 mps 656 mmHg 52%
    23:00 +25°C° 0 mm 1 mps 656 mmHg 55%
    Show more